Location: Poughquag
(41.6090°N, 73.6820°W)
Time: 00:17:09
(UTC-05:00)

Altair - Visible Passes

Search period start: 29 November 2023 00:00
Search period end: 09 December 2023 00:00
Orbit: 1501 x 1682 km, 47.2° (Epoch: 28 November)

Date Brightness Start Highest point End Pass type
(mag) Time Alt. Az. Time Alt. Az. Time Alt. Az.
29 Nov 9.0 16:48:28 10° WNW 16:56:38 38° SW 17:04:52 10° SSE visible
02 Dec 10.4 17:41:45 10° WSW 17:44:14 11° WSW 17:46:42 10° SW visible
03 Dec 10.3 17:15:25 10° W 17:19:12 13° WSW 17:23:00 10° SSW visible
04 Dec 9.7 06:23:59 10° S 06:31:57 29° SE 06:39:41 10° ENE visible
04 Dec 10.3 16:49:30 10° W 16:54:10 15° SW 16:58:52 10° SSW visible
05 Dec 9.7 05:59:11 10° S 06:06:51 26° SE 06:14:18 10° ENE visible
06 Dec 9.7 05:34:26 10° S 05:41:46 24° SE 05:48:53 10° E visible
07 Dec 9.8 05:09:45 10° S 05:16:40 22° SE 05:23:25 10° E visible
08 Dec 9.8 04:45:09 10° SSE 04:51:35 20° SE 04:57:53 10° E visible
